Victoria, TX

6:30 PM CDT on October 14, 2019 (GMT -0500)
Victoria Regional

Weather History for KVCT - August, 2019

Change the Weather History Date:

Sunday, August 18, 2019

  Actual Average Record
Temperature  
Mean Temperature 90 °F 84 °F  
Max Temperature 100 °F 95 °F 104 °F (1917)
Min Temperature 79 °F 74 °F 65 °F (1992)
Degree Days  
Heating Degree Days 0 0  
Month to date heating degree days 0 0  
Since 1 June heating degree days 0 0  
Since 1 July heating degree days 0 0  
Cooling Degree Days 25 20  
Month to date cooling degree days 420 360  
Year to date cooling degree days 2373 2113  
Since 1 June cooling degree days 1605 1454  
Growing Degree Days 40 (Base 50)    
Moisture  
Dew Point 75 °F    
Average Humidity 67    
Maximum Humidity 94    
Minimum Humidity 40    
Precipitation  
Precipitation 0.00 in 0.09 in 1.66 in (1973)
Month to date precipitation 0.10 1.43  
Year to date precipitation 14.74 25.45  
Snow  
Snow 0.00 in 0.00 in 0.00 in (2002)
Month to date snowfall 0.0 0.0  
Since 1 June snowfall 0.0 0.0  
Since 1 July snowfall 0.0 0.0  
Snow Depth 0.00 in    
Sea Level Pressure  
Sea Level Pressure 29.88 in    
Wind  
Wind Speed 12 mph (SSE)    
Max Wind Speed 25 mph    
Max Gust Speed 32 mph    
Visibility 10 miles    
Events      
T = Trace of Precipitation, MM = Missing Value Source: NWS Daily Summary

Daily Weather History Graph

Daily Weather History Graph

Search for Another Location

Airport or City:

Astronomy

Aug. 18, 2019 Rise Set
Actual Time 6:58 AM CDT 8:04 PM CDT
Civil Twilight 6:33 AM CDT 8:29 PM CDT
Nautical Twilight 6:04 AM CDT 8:58 PM CDT
Astronomical Twilight 5:34 AM CDT 9:28 PM CDT
Moon 10:12 PM CDT (8/18) 9:34 AM CDT (8/18)
Length of Visible Light 13h 55m
Length of Day
13h 06m
Waning Gibbous, 91% of the Moon is Illuminated
Aug 18
Waning Gibbous
Aug 23
Last Quarter
Aug 30
New
Sep 5
First Quarter
Sep 13
Full

Hourly Weather History & Observations

Time (CDT) Temp. Heat Index Dew Point Humidity Pressure Visibility Wind Dir Wind Speed Gust Speed Precip Events Conditions
12:51 AM 82.0 °F 90.2 °F 77.0 °F 85% 29.88 in 10.0 mi SSE 9.2 mph - N/A   Mostly Cloudy
1:06 AM 82.9 °F 91.8 °F 77.0 °F 82% 29.88 in 10.0 mi SSE 8.1 mph - N/A   Scattered Clouds
1:31 AM 82.0 °F 90.2 °F 77.0 °F 85% 29.88 in 10.0 mi SSE 8.1 mph - N/A   Mostly Cloudy
1:51 AM 82.0 °F 90.2 °F 77.0 °F 85% 29.86 in 10.0 mi SSE 8.1 mph - N/A   Mostly Cloudy
2:07 AM 82.0 °F 90.2 °F 77.0 °F 85% 29.87 in 10.0 mi SSE 6.9 mph - N/A   Scattered Clouds
2:51 AM 81.0 °F 87.9 °F 77.0 °F 88% 29.86 in 10.0 mi ESE 4.6 mph - N/A   Overcast
3:21 AM 81.0 °F 87.9 °F 77.0 °F 88% 29.87 in 10.0 mi SE 4.6 mph - N/A   Mostly Cloudy
3:51 AM 81.0 °F 87.9 °F 77.0 °F 88% 29.87 in 10.0 mi ESE 3.5 mph - N/A   Overcast
4:51 AM 81.0 °F 87.9 °F 77.0 °F 88% 29.87 in 10.0 mi Calm Calm - N/A   Overcast
5:51 AM 80.1 °F 85.8 °F 77.0 °F 90% 29.87 in 9.0 mi Calm Calm - N/A   Overcast
6:51 AM 80.1 °F 85.8 °F 77.0 °F 90% 29.88 in 9.0 mi SSE 4.6 mph - N/A   Scattered Clouds
7:51 AM 81.0 °F 88.6 °F 78.1 °F 91% 29.89 in 8.0 mi SSE 4.6 mph - N/A   Clear
8:51 AM 87.1 °F 99.8 °F 78.1 °F 74% 29.89 in 10.0 mi SSW 11.5 mph 19.6 mph N/A   Partly Cloudy
9:51 AM 89.1 °F 100.2 °F 75.9 °F 65% 29.91 in 10.0 mi South 17.3 mph - N/A   Scattered Clouds
10:51 AM 93.9 °F 102.1 °F 72.0 °F 49% 29.91 in 10.0 mi SSW 20.7 mph 31.1 mph N/A   Partly Cloudy
11:51 AM 96.1 °F 104.9 °F 72.0 °F 46% 29.90 in 10.0 mi SSW 16.1 mph 28.8 mph N/A   Scattered Clouds
12:51 PM 98.1 °F 107.2 °F 72.0 °F 43% 29.89 in 10.0 mi South 17.3 mph 24.2 mph N/A   Partly Cloudy
1:51 PM 100.0 °F 108.6 °F 71.1 °F 39% 29.87 in 10.0 mi South 20.7 mph 28.8 mph N/A   Partly Cloudy
2:51 PM 100.0 °F 111.0 °F 73.0 °F 42% 29.87 in 10.0 mi South 19.6 mph 29.9 mph N/A   Partly Cloudy
3:51 PM 97.0 °F 107.0 °F 73.0 °F 46% 29.85 in 10.0 mi South 17.3 mph 27.6 mph N/A   Partly Cloudy
4:51 PM 97.0 °F 105.5 °F 72.0 °F 44% 29.85 in 10.0 mi South 16.1 mph 23.0 mph N/A   Clear
5:51 PM 95.0 °F 100.7 °F 69.1 °F 43% 29.86 in 10.0 mi South 18.4 mph - N/A   Clear
6:51 PM 91.9 °F 98.4 °F 71.1 °F 50% 29.86 in 10.0 mi South 16.1 mph - N/A   Clear
7:51 PM 89.1 °F 97.0 °F 73.0 °F 59% 29.87 in 10.0 mi SE 13.8 mph - N/A   Clear
8:51 PM 86.0 °F 95.1 °F 75.0 °F 70% 29.88 in 10.0 mi SSE 15.0 mph - N/A   Clear
9:51 PM 84.0 °F 92.6 °F 75.9 °F 76% 29.90 in 10.0 mi SE 9.2 mph - N/A   Clear
10:51 PM 82.9 °F 91.8 °F 77.0 °F 82% 29.92 in 10.0 mi SE 9.2 mph - N/A   Clear
11:51 PM 82.0 °F 90.2 °F 77.0 °F 85% 29.93 in 10.0 mi SE 9.2 mph - N/A   Clear